This is the latest recevied weather packets stored in our database for station/object K5NWZ. If no packets are shown the sender has not sent any weather packets the latest 10 day(s).
| Time | Temp. | Humidity | Pressure | Rain* | Wind** | Luminosity | Snow |
|---|---|---|---|---|---|---|---|
| 1778114229 | 5.56° C | 62% | 1026.6 hPa | 0 mm | - | 69 W/m² | - |
| 1778113924 | 5.56° C | 63% | 1026.6 hPa | 0 mm | - | 83 W/m² | - |
| 1778113620 | 6.11° C | 62% | 1026.7 hPa | 0 mm | - | 95 W/m² | - |
| 1778113316 | 5.56° C | 62% | 1026.8 hPa | 0 mm | - | 128 W/m² | - |
| 1778113013 | 6.11° C | 61% | 1026.7 hPa | 0 mm | - | 118 W/m² | - |
| 1778112711 | 5.56° C | 63% | 1026.6 hPa | 0 mm | - | 127 W/m² | - |
| 1778112407 | 5.56° C | 64% | 1026.8 hPa | 0 mm | - | 148 W/m² | - |
| 1778112102 | 5.56° C | 62% | 1027 hPa | 0 mm | - | 170 W/m² | - |
| 1778111800 | 5.56° C | 62% | 1026.7 hPa | 0 mm | - | 192 W/m² | - |
| 1778111500 | 5.56° C | 62% | 1027.3 hPa | 0 mm | - | 203 W/m² | - |
| 1778111197 | 6.67° C | 59% | 1027 hPa | 0 mm | - | 214 W/m² | - |
| 1778110894 | 5.56° C | 62% | 1027 hPa | 0 mm | - | 242 W/m² | - |
| 1778110591 | 6.11° C | 62% | 1027 hPa | 0 mm | - | 263 W/m² | - |
| 1778110288 | 6.11° C | 61% | 1027 hPa | 0 mm | - | 278 W/m² | - |
| 1778109984 | 6.11° C | 61% | 1027 hPa | 0 mm | - | 290 W/m² | - |
| 1778109680 | 6.11° C | 59% | 1027.2 hPa | 0 mm | - | 306 W/m² | - |
| 1778109377 | 5.56° C | 60% | 1026.9 hPa | 0 mm | - | 319 W/m² | - |
| 1778109076 | 5.56° C | 61% | 1027.2 hPa | 0 mm | - | 332 W/m² | - |
| 1778108772 | 6.11° C | 61% | 1026.9 hPa | 0 mm | - | 346 W/m² | - |
| 1778108469 | 5.56° C | 60% | 1027 hPa | 0 mm | - | 358 W/m² | - |
| 1778108166 | 5.56° C | 61% | 1026.9 hPa | 0 mm | - | 378 W/m² | - |
| 1778107862 | 5.56° C | 59% | 1026.9 hPa | 0 mm | - | 390 W/m² | - |
| 1778107559 | 6.11° C | 62% | 1026.9 hPa | 0 mm | - | 404 W/m² | - |
| 1778107256 | 5.56° C | 62% | 1026.8 hPa | 0 mm | - | 417 W/m² | - |
| 1778106951 | 6.67° C | 60% | 1027 hPa | 0 mm | - | 435 W/m² | - |
* Rain latest hour (hover to see other rain measurements)
** Current wind speed in m/s (hover to see current wind gust speed)